[[{"header":{"parameterUnit":"m.s-1","parameterCategory":1,"la1":30.2991,"la2":30.254,"lo1":-89.0895,"lo2":-89.0444,"dy":0.0017,"dx":0.0017,"nx":28,"ny":28,"refTime":"2024-04-27T21:00:00:Z","depth":0,"parameterNumber":2,"parameterNumberName":"U-component_of_WINDS"},"data":[0,0,0,0,0,0,0,0,0,0,0,0,0,0,0,0,0,0,0,0,0,0,0,0,0,0,0,0,0,0,0,0,0,0,0,0,0,0,0,0,0,0,0,0,0,0,0,0,0,0,0,0,0,0,0,0,0,0,-7.7589,-7.7591,0,-7.773,-7.7731,-7.7733,-7.7684,-7.7681,-7.7678,-7.7675,-7.7814,-7.7821,-7.7827,0,0,0,0,0,0,0,0,0,0,0,0,0,-7.7274,-7.728,-7.7589,-7.7591,-7.7593,-7.773,-7.7731,-7.7733,-7.7685,-7.7681,-7.7677,-7.7674,-7.7812,-7.782,-7.7828,0,0,0,0,0,0,0,0,0,0,0,0,0,-7.7413,-7.7282,-7.7589,-7.7585,-7.7586,-7.7729,-7.7732,-7.7734,-7.7686,-7.7681,-7.7676,-7.7672,-7.7809,-7.7819,-7.7829,-7.7982,0,0,-7.7859,-7.7863,0,0,0,0,0,0,0,0,-7.7405,-7.7424,-7.7584,-7.7586,-7.7587,-7.7685,-7.7671,-7.7817,-7.7687,-7.7648,-7.7675,-7.767,-7.7775,-7.7787,-7.7823,-7.7989,-7.7995,-7.786,-7.7866,-7.787,-7.7873,0,0,0,0,0,0,0,-7.7395,-7.7418,-7.7644,-7.7586,-7.7588,-7.7575,-7.759,-7.7699,-7.7735,-7.7651,-7.7648,-7.7665,-7.7775,-7.7814,-7.7826,-7.7997,-7.786,-7.7868,-7.7874,-7.7878,-7.8294,-7.8299,0,0,0,0,0,0,-7.7385,-7.741,-7.764,-7.7649,-7.7483,-7.7584,-7.7601,-7.7658,-7.7734,-7.7741,-7.7669,-7.7662,-7.7799,-7.7815,-7.7831,-7.8014,-7.787,-7.7879,-7.7885,-7.8289,-7.8295,-7.8301,0,0,0,0,0,0,-7.7379,-7.7406,-7.7634,-7.7529,-7.7557,-7.7595,-7.766,-7.7663,-7.7703,-7.7748,-7.7754,-7.7703,-7.7796,-7.7817,-7.7945,-7.8018,-7.7884,-7.7893,-7.8283,-7.8291,-7.8298,-7.8382,0,0,0,0,0,0,-7.737,-7.7404,-7.7464,-7.7531,-7.7563,-7.7747,-7.7664,-7.7669,-7.772,-7.7713,-7.7781,-7.7788,-7.7794,-7.7931,-7.7955,-7.8029,-7.79,-7.8277,-7.8287,-7.8296,-7.8373,-7.8391,-7.8408,0,0,0,0,0,-7.7359,-7.7481,-7.7467,-7.7495,-7.7638,-7.7752,-7.777,-7.7776,-7.7727,-7.7786,-7.7815,-7.7786,-7.8008,-7.7944,-7.7971,-7.8049,-7.8272,-7.8284,-7.8295,-7.8365,-7.8388,-7.8407,0,0,0,0,0,0,-7.7419,-7.7489,-7.7475,-7.7622,-7.7682,-7.7743,-7.7818,-7.7801,-7.7874,-7.7864,-7.7868,-7.7883,-7.8015,-7.8046,-7.7974,-7.8202,-7.8132,-7.8149,-7.8176,-7.8198,-7.8215,-7.8203,-7.7908,0,0,0,0,0,-7.7451,-7.7539,-7.7595,-7.7719,-7.775,-7.778,-7.7829,-7.783,-7.789,-7.7914,-7.7953,-7.8012,-7.8095,-7.8149,-7.8228,-7.8379,-7.8391,-7.8446,-7.8463,-7.8478,-7.8491,-7.8571,-7.8596,-7.8339,-7.8339,-7.8338,0,0,-7.7514,-7.7563,-7.7618,-7.7733,-7.7778,-7.7868,-7.78,-7.7898,-7.7964,-7.7929,-7.8051,-7.8083,-7.8149,-7.8288,-7.8352,-7.8318,-7.8566,-7.8492,-7.8503,-7.8509,-7.8586,-7.861,-7.8632,-7.8347,-7.8345,-7.8344,0,0,-7.7675,-7.7723,-7.7831,-7.7879,-7.7951,-7.797,-7.7996,-7.8061,-7.8081,-7.8205,-7.818,-7.8259,-7.8402,-7.8449,-7.8492,-7.8675,-7.8649,-7.8701,-7.879,-7.8868,-7.8888,-7.8906,-7.8968,-7.8991,-7.8715,-7.8715,-7.8715,0,-7.7744,-7.7879,-7.7888,-7.7988,-7.8038,-7.8014,-7.8122,-7.8169,-7.8261,-7.8296,-7.8258,-7.8437,-7.848,-7.863,-7.8674,-7.8711,-7.8739,-7.869,-7.8885,-7.8903,-7.892,-7.8979,-7.9002,-7.8721,-7.872,-7.8719,-7.8719,0,-7.7959,-7.8054,-7.8133,-7.8224,-7.8284,-7.8388,-7.8411,-7.8471,-7.8467,-7.849,-7.8616,-7.8668,-7.8756,-7.8793,-7.8789,-7.8942,-7.8919,-7.8884,-7.8812,-7.8949,-7.9005,-7.9028,-7.8728,-7.8726,-7.8725,-7.8723,0,0,-7.8158,-7.8256,-7.8284,-7.8325,-7.8404,-7.8476,-7.8579,-7.8667,-7.8717,-7.8783,-7.8867,-7.899,-7.8958,-7.9007,-7.901,-7.9079,-7.9217,-7.9035,-7.9037,-7.9064,-7.9386,-7.9409,-7.9435,-7.9203,-7.9208,-7.9211,-7.9379,0,-7.8322,-7.8504,-7.8516,-7.8679,-7.8765,-7.8745,-7.8834,-7.8891,-7.8917,-7.8992,-7.902,-7.9105,-7.9058,-7.9088,-7.9156,-7.9186,-7.9281,-7.9175,-7.9279,-7.9282,-7.9258,-7.9465,-7.9489,-7.9645,-7.9401,-7.9405,-7.9408,0,-7.8537,-7.8611,-7.8784,-7.885,-7.8886,-7.8967,-7.9048,-7.9122,-7.9187,-7.92,-7.9256,-7.9249,-7.9353,-7.9283,-7.9425,-7.9352,-7.9397,-7.9418,-7.9425,-7.943,-7.935,-7.9472,-7.9695,-7.9717,-7.9443,-7.944,-7.9437,0,-7.866,-7.8804,-7.8925,-7.8961,-7.9043,-7.9099,-7.9135,-7.9196,-7.9248,-7.932,-7.9353,-7.9436,-7.9481,-7.9544,-7.956,-7.9508,-7.9701,-7.9632,-7.9712,-7.9712,-7.975,-7.9746,-7.9978,-7.9786,-7.9785,-7.9785,-7.9785,0,-7.884,-7.8945,-7.8981,-7.9055,-7.9172,-7.9186,-7.9301,-7.9334,-7.9388,-7.9467,-7.9456,-7.953,-7.9548,-7.9625,-7.9638,-7.9752,-7.9773,-7.9785,-7.9786,-7.9784,-7.9782,-7.9809,-7.9797,-7.9791,-7.979,-7.9789,-7.9788,0,-7.8995,-7.9024,-7.9154,-7.9222,-7.9241,-7.9324,-7.9381,-7.9452,-7.9477,-7.9577,-7.9601,-7.964,-7.9731,-7.9754,-7.9862,-7.987,-8.0004,-7.9998,-7.9983,-7.9981,-8.0058,-8.0049,-8.0312,-8.0346,-8.0135,-8.0137,-8.0139,0,-7.9105,-7.9186,-7.9263,-7.9316,-7.9355,-7.9441,-7.9495,-7.9512,-7.9569,-7.9649,-7.971,-7.98,-7.9871,-8.0017,-8.0054,-8.0136,-8.0129,-8.0216,-8.0141,-8.0135,-8.0126,-8.0119,-8.0126,-8.0228,-8.023,-8.0232,-8.0234,0,-7.9298,-7.9308,-7.9387,-7.9472,-7.9537,-7.9604,-7.9668,-7.9712,-7.9738,-7.9802,-7.9895,-7.9952,-8.0063,-8.0151,-8.0235,-8.0271,-8.0256,-8.0258,-8.028,-8.0276,-8.0262,-8.0267,-8.0017,-8.025,-8.0249,-8.0247,-8.0247,-8.0246,-7.9431,-7.9502,-7.9567,-7.9655,-7.9706,-7.9767,-7.9836,-7.9871,-7.995,-8.0042,-8.0048,-8.0149,-8.0212,-8.0323,-8.0364,-8.0442,-8.0415,-8.0448,-8.0456,-8.0463,-8.0468,-8.0254,-8.0458,-8.0457,-8.0457,-8.0456,-8.0456,0,-7.962,-7.9661,-7.9743,-7.9834,-7.9903,-7.9887,-7.9958,-8.0016,-8.0105,-8.0166,-8.0238,-8.0345,-8.0431,-8.0476,-8.0562,-8.0616,-8.0611,-8.0637,-8.0631,-8.0639,-8.0488,-8.0459,-8.0639,-8.0639,-8.0639,-8.0639,-8.0639,-8.0639,-7.9725,-7.9843,-7.9862,-8.0004,-8.0045,-8.0145,-8.0186,-8.0241,-8.029,-8.041,-8.0483,-8.0512,-8.0567,-8.0656,-8.0734,-8.0745,-8.0775,-8.0804,-8.0811,-8.0669,-8.065,-8.0632,-8.0604,-8.0812,-8.0812,-8.0955,-8.0956,-8.0957]},{"header":{"parameterUnit":"m.s-1","parameterCategory":1,"la1":30.2991,"la2":30.254,"lo1":-89.0895,"lo2":-89.0444,"dy":0.0017,"dx":0.0017,"nx":28,"ny":28,"refTime":"2024-04-27T21:00:00:Z","depth":0,"parameterNumber":3,"parameterNumberName":"V-component_of_WINDS"},"data":[0,0,0,0,0,0,0,0,0,0,0,0,0,0,0,0,0,0,0,0,0,0,0,0,0,0,0,0,0,0,0,0,0,0,0,0,0,0,0,0,0,0,0,0,0,0,0,0,0,0,0,0,0,0,0,0,0,0,4.4024,4.4024,0,4.4063,4.4063,4.4063,4.4024,4.4023,4.4021,4.402,4.4056,4.4058,4.406,0,0,0,0,0,0,0,0,0,0,0,0,0,4.3914,4.3916,4.4024,4.4024,4.4025,4.4062,4.4063,4.4064,4.4024,4.4023,4.4021,4.4019,4.4055,4.4058,4.406,0,0,0,0,0,0,0,0,0,0,0,0,0,4.3958,4.3916,4.4024,4.401,4.4009,4.4062,4.4063,4.4064,4.4025,4.4023,4.402,4.4018,4.4054,4.4057,4.4061,4.4129,0,0,4.4072,4.4073,0,0,0,0,0,0,0,0,4.3955,4.3962,4.4011,4.4011,4.401,4.4036,4.4037,4.4085,4.4025,4.4019,4.402,4.4017,4.4051,4.4054,4.4067,4.413,4.4132,4.4072,4.4074,4.4076,4.4077,0,0,0,0,0,0,0,4.3952,4.396,4.4039,4.4012,4.4011,4.4001,4.4005,4.4046,4.4047,4.4019,4.4016,4.4022,4.405,4.4063,4.4067,4.4132,4.4072,4.4075,4.4077,4.4079,4.4255,4.4258,0,0,0,0,0,0,4.3951,4.3958,4.4038,4.404,4.3977,4.4005,4.4009,4.403,4.4046,4.4047,4.4024,4.402,4.4058,4.4063,4.4068,4.415,4.4076,4.4079,4.4081,4.4253,4.4256,4.4259,0,0,0,0,0,0,4.3949,4.3959,4.4036,4.3998,4.4007,4.4009,4.4033,4.4032,4.4045,4.405,4.4049,4.4037,4.4057,4.4063,4.4115,4.415,4.4081,4.4084,4.425,4.4254,4.4257,4.4312,0,0,0,0,0,0,4.3946,4.3958,4.3984,4.3999,4.401,4.4082,4.4035,4.4034,4.4052,4.4047,4.4063,4.4063,4.4055,4.4109,4.4118,4.4154,4.4087,4.4246,4.4251,4.4256,4.4307,4.4317,4.4326,0,0,0,0,0,4.3942,4.3997,4.3986,4.3995,4.4042,4.4085,4.409,4.4082,4.4055,4.4081,4.4084,4.4062,4.4145,4.4115,4.4124,4.4162,4.4244,4.425,4.4256,4.4303,4.4315,4.4326,0,0,0,0,0,0,4.3984,4.3998,4.3986,4.4047,4.4066,4.4078,4.411,4.4095,4.412,4.4114,4.4101,4.4105,4.416,4.4166,4.4132,4.4229,4.419,4.4198,4.4223,4.4235,4.4244,4.4241,4.409,0,0,0,0,0,4.4,4.4035,4.4045,4.4098,4.4108,4.4108,4.4126,4.4118,4.4136,4.4142,4.4149,4.4166,4.4196,4.4216,4.4243,4.4308,4.4311,4.4339,4.4348,4.4356,4.4363,4.4399,4.4411,4.4277,4.4277,4.4277,0,0,4.4034,4.4047,4.4068,4.4107,4.412,4.4155,4.4114,4.4153,4.4179,4.4148,4.4197,4.4203,4.4221,4.428,4.4306,4.4287,4.4401,4.4363,4.437,4.4372,4.4406,4.4419,4.443,4.4281,4.4281,4.428,0,0,4.4114,4.4127,4.4174,4.4188,4.4209,4.4209,4.4221,4.4236,4.424,4.429,4.4268,4.4298,4.435,4.4364,4.4378,4.4467,4.4448,4.4476,4.4525,4.4561,4.4571,4.458,4.4613,4.4624,4.4483,4.4483,4.4483,0,4.4153,4.4207,4.4199,4.424,4.4258,4.4234,4.4281,4.4295,4.4323,4.4336,4.4314,4.438,4.439,4.4453,4.4475,4.4487,4.4499,4.4474,4.4571,4.458,4.4588,4.4619,4.4631,4.4486,4.4486,4.4486,4.4485,0,4.4254,4.4292,4.4326,4.4357,4.4379,4.4422,4.4421,4.4444,4.4435,4.4438,4.4489,4.4501,4.4532,4.4546,4.4537,4.4608,4.4596,4.4573,4.4533,4.4605,4.4633,4.4645,4.4491,4.449,4.4489,4.4488,0,0,4.4359,4.4387,4.44,4.4415,4.4438,4.4466,4.4509,4.4541,4.4561,4.4582,4.4618,4.4663,4.4643,4.4659,4.4651,4.4682,4.4753,4.4656,4.4656,4.4674,4.4833,4.485,4.4864,4.4741,4.4743,4.4745,4.4832,0,4.444,4.4517,4.4512,4.4584,4.4619,4.4598,4.4635,4.4653,4.4657,4.4687,4.4691,4.4724,4.4694,4.4704,4.4734,4.4738,4.4785,4.4732,4.4774,4.4775,4.477,4.4879,4.4896,4.4977,4.4843,4.4845,4.4846,0,4.4545,4.4572,4.4648,4.4667,4.4682,4.4716,4.4746,4.4774,4.4795,4.4795,4.4815,4.4803,4.4846,4.4807,4.4867,4.4831,4.4848,4.4853,4.4856,4.4859,4.4815,4.4884,4.5003,4.5015,4.4863,4.4862,4.4861,0,4.4615,4.467,4.4723,4.4736,4.476,4.4785,4.4795,4.4814,4.4834,4.486,4.4872,4.4902,4.4919,4.4942,4.4938,4.491,4.4999,4.4959,4.5001,4.5001,4.502,4.5019,4.5142,4.5031,4.5031,4.5031,4.5031,0,4.4705,4.4752,4.4755,4.4787,4.484,4.4835,4.4886,4.4894,4.4911,4.4945,4.4928,4.4959,4.4953,4.4984,4.4982,4.5032,4.5039,4.5041,4.5039,4.5042,4.5042,4.5052,4.5047,4.5034,4.5034,4.5033,4.5032,0,4.4792,4.4795,4.4852,4.4871,4.4877,4.4915,4.4931,4.4962,4.4965,4.5008,4.5018,4.5023,4.5059,4.5058,4.5099,4.5097,4.5159,4.5151,4.5153,4.5151,4.5193,4.5189,4.5327,4.5346,4.5223,4.5224,4.5225,0,4.4849,4.4886,4.491,4.4932,4.4945,4.4981,4.5002,4.4999,4.5021,4.5049,4.5076,4.5111,4.5139,4.5198,4.5205,4.5236,4.5229,4.5275,4.5233,4.5235,4.523,4.5228,4.5232,4.5283,4.5285,4.5286,4.5287,0,4.4951,4.4952,4.4984,4.5018,4.5044,4.507,4.5094,4.5112,4.5112,4.5138,4.5176,4.5198,4.5241,4.5276,4.5307,4.5317,4.5302,4.53,4.5312,4.5314,4.5314,4.5315,4.5175,4.5297,4.5296,4.5295,4.5294,4.5294,4.5025,4.5057,4.508,4.5117,4.5135,4.5158,4.5189,4.5197,4.523,4.5265,4.5261,4.5304,4.5324,4.5364,4.5378,4.5411,4.5394,4.541,4.5414,4.5418,4.5423,4.531,4.5416,4.5416,4.5416,4.5415,4.5415,0,4.5127,4.5142,4.5176,4.5211,4.524,4.5226,4.5252,4.5276,4.5315,4.5336,4.5365,4.5409,4.5444,4.5455,4.5488,4.5512,4.5506,4.5521,4.5519,4.5522,4.5436,4.5423,4.5526,4.5526,4.5526,4.5526,4.5526,4.5526,4.5183,4.5237,4.5241,4.5304,4.5318,4.5361,4.5377,4.5398,4.5416,4.5467,4.5496,4.5504,4.5521,4.5556,4.5587,4.5589,4.5602,4.562,4.562,4.5539,4.5528,4.5517,4.5505,4.5623,4.5623,4.5703,4.5704,4.5704]}]]